Terminal Aerodrome Forecast
Issued by NWS

Home | Current Version | Previous Version | Text Only | Print | Product List | Glossary On
Versions: 1 2 3 4 5 6 7 8 9 10 11 12 13 14
000
FTUS45 KMSO 292325
TAFSMN
TAF
KSMN 292325Z 3000/3024 21020G30KT P6SM VCSH BKN100
     FM300200 22010G20KT P6SM VCSH BKN100
     FM300300 VRB06KT P6SM BKN100
     FM301700 29010G18KT P6SM BKN100
      AMD LTD TO CLD VIS AND WIND=

USA.gov is the U.S. government's official web portal to all federal, state and local government web resources and services.